OpenBCM V1.07b12 (Linux)

Packet Radio Mailbox

DB0FHN

[JN59NK Nuernberg]

 Login: GUEST





  
I6KZR  > KEPLER   29.12.02 03:34l 315 Lines 15606 Bytes #999 (0) @ WW
BID : 1308_FG1JD
Read: DB0FHN GUEST
Subj: 2L Keplerian Elements #351
Path: DB0FHN<DB0RGB<OK0PPL<OK0PAD<OK0PCC<OK0NAG<9A0BBS<LZ0FBB<HA8FY<HA3PG<
      JE7YGF<LU6DTS<LZ3NP<PY2DML<PY2GN<FG1JD<FG5DN<F1HPZ<F1UOK<F6CDD<7M3TJZ<
      IK6PYS<IW6CBN<I6ZLO<IK6WID
Sent: 021217/2102Z @:IK6WID.#AP.IMAR.ITA.EU #:12561 [MONTE URANO]  FBB7.00i
From: I6KZR@IK6WID.#AP.IMAR.ITA.EU
To  : KEPLER@WW


OSCAR 7
1 07530U 74089B   02350.68670918 -.00000029 +00000-0 +10000-3 0 01581
2 07530 101.7720 034.0483 0012131 201.3850 158.6715 12.53562654285180
GOES 2
1 10061U 77048A   02349.29993154 -.00000107  00000-0  00000+0 0   195
2 10061  14.1075  13.9422 0013653 191.4349 168.5304  0.99401231 38184
GOES 3
1 10953U 78062A   02350.11599624 -.00000078  00000-0  00000+0 0  8565
2 10953  13.3801  17.7239 0004275 338.9547  21.0558  1.00276946 42857
GOES 6
1 14050U 83041A   02348.24240013  .00000075  00000-0  10000-3 0  4046
2 14050  10.3169  35.9007 0002737 357.5651   2.3926  1.00281064129979
OSCAR 10
1 14129U 83058B   02345.92326890 +.00000278 +00000-0 +10000-3 0 09074
2 14129 025.8140 175.7887 6053359 309.7142 010.8395 02.05865203118657
OSCAR 11 (UoSAT 2)
1 14781U 84021B   02351.51033157  .00002655  00000-0  37718-3 0   204
2 14781  98.1090 319.9991 0010767  55.4855 304.7370 14.77754917  6927
NOAA 10
1 16969U 86073A   02351.02468167  .00000332  00000-0  15482-3 0  5964
2 16969  98.7243 340.2913 0011678 273.1270  86.8574 14.27030363844848
GOES 7
1 17561U 87022A   02349.65682565  .00000101  00000-0  10000-3 0  7769
2 17561   7.4857  55.9078 0005703 297.3846 154.1535  1.00300807 41098
COSMOS 1861
1 18129U 87054A   02350.95047145 +.00000094 +00000-0 +85424-4 0 01778
2 18129 082.9248 193.5974 0013143 047.7909 312.4360 13.72692572775789
EUTELSAT 1-F4 (ECS 4)
1 18351U 87078B   02342.19465858  .00000145  00000-0  10000-3 0   170
2 18351   7.1132  58.7611 0036776 197.5270 283.7435  1.00278104 41967
NOAA 11
1 19531U 88089A   02350.99198622  .00000290  00000-0  17451-3 0  4333
2 19531  98.9097  67.5598 0012128  26.2253 333.9532 14.14500396733810
ASTRA 1A
1 19688U 88109B   02350.64466155  .00000059  00000-0  10000-3 0  5461
2 19688   1.2313  95.9198 0003534 158.3889  68.0800  1.00273085 31554
OSCAR 14 (UOSAT 3)
1 20437U 90005B   02350.67048850 +.00000250 +00000-0 +11000-3 0 01239
2 20437 098.2806 032.3075 0011605 034.9054 325.2888 14.31209418673352
OSCAR 15 (UOSAT 4)
1 20438U 90005C   02350.64373732 +.00000173 +00000-0 +82480-4 0 07687
2 20438 098.2550 021.6925 0010896 045.3199 314.8870 14.30175010673029
OSCAR 16 (PACSAT)
1 20439U 90005D   02350.69578369 +.00000314 +00000-0 +13394-3 0 08276
2 20439 098.3276 043.6377 0011876 040.7087 319.4992 14.31438206673391
OSCAR 17 (DOVE)
1 20440U 90005E   02350.69705062 +.00000337 +00000-0 +14199-3 0 07245
2 20440 098.3454 047.3820 0011715 040.6477 319.5570 14.31712809673464
OSCAR 18 (WEBERSAT)
1 20441U 90005F   02350.95984011 +.00000304 +00000-0 +13003-3 0 09786
2 20441 098.3438 046.8872 0012455 040.4840 319.7268 14.31520780673485
OSCAR 19 (LUSAT)
1 20442U 90005G   02350.73582811  .00000325  00000-0  13740-3 0  9180
2 20442  98.3550  49.5787 0012837  39.0769 321.1339 14.31682802673507
JAS 1B (FUJI 2)
1 20480U 90013C   02350.93058195 -.00000012 +00000-0 +39138-4 0 04545
2 20480 099.0364 320.6753 0540851 147.9315 215.5928 12.83326466602355
HST
1 20580U 90037B   02350.72267142  .00005390  00000-0  43832-3 0  2594
2 20580  28.4661  92.7419 0003841 319.3563 164.7363 14.97490343493057
EUTELSAT 2-F1
1 20777U 90079B   02350.63820410 -.00000049  00000-0  10000-3 0    36
2 20777   3.3469  85.1318 0000539 257.9198  42.4240  1.00384763 25458
FENGYUN 1B
1 20788U 90081A   02351.16701339  .00000291  00000-0  21890-3 0  8369
2 20788  99.0178 328.9939 0016462  44.9462 315.3034 14.02117425628655
EUTELSAT 2-F2
1 21056U 91003B   02349.98835899  .00000143  00000-0  10000-3 0  5992
2 21056   2.5680  88.4931 0001562 127.9216 272.3162  1.00274967 31230
INFORMATOR 1
1 21087U 91006A   02350.88294931 +.00000109 +00000-0 +97493-4 0 06047
2 21087 082.9420 004.5733 0037099 067.8100 292.6985 13.74918653596139
COSMOS 2123
1 21089U 91007A   02350.76803131 +.00000092 +00000-0 +81298-4 0 04938
2 21089 082.9241 228.7097 0030480 101.8961 258.5614 13.74396475595025
ASTRA 1B
1 21139U 91015A   02346.00000000  .00000129  00000-0  10000-3 0  1546
2 21139   0.0122 319.8851 0002995  65.1991  74.6601  1.00273184 31503
METEOSAT 5 (MOP 2)
1 21140U 91015B   02350.62557324  .00000040  00000-0  10000-3 0  6409
2 21140   5.4888  70.3676 0001203 162.8180 139.9574  1.00274981 45407
NOAA 12
1 21263U 91032A   02351.01154510  .00000560  00000-0  25734-3 0  9004
2 21263  98.6198 336.7446 0012199 204.1120 155.9489 14.25024831602168
OSCAR 22 (UoSAT 5)
1 21575U 91050B   02351.16872209  .00000592  00000-0  20472-3 0  6778
2 21575  98.1357 341.5137 0007152 333.2684  26.8137 14.39097268599169
METEOR 3-5
1 21655U 91056A   02350.93416230 +.00000051 +00000-0 +10000-3 0 05220
2 21655 082.5555 083.8254 0013829 002.5030 357.6159 13.16974875545106
UARS
1 21701U 91063B   02350.50294224  .00001653  00000-0  14180-3 0  7774
2 21701  56.9808 291.3295 0006944 105.8753 254.3048 15.02687376616084
EUTELSAT 2-F3
1 21803U 91083A   02349.94409145  .00000151  00000-0  10000-3 0  5008
2 21803   2.4366  89.7465 0002606 185.8204 170.2145  1.00276341 36348
INMARSAT 2-F3
1 21814U 91084B   02350.66307628  .00000135  00000-0  10000-3 0  5827
2 21814   1.6904  57.5249 0002516 202.7696 281.5321  1.00269931 40250
INMARSAT 2-F4
1 21940U 92021B   02350.72889546 -.00000330  00000-0  10000-3 0  5569
2 21940   2.3900  18.4549 0002137 214.5829 223.4119  1.00263904 39040
EUTELSAT 2-F4
1 22028U 92041B   02348.96765626 -.00000080  00000-0  10000-3 0  3070
2 22028   1.5564  93.3762 0004002 157.7435 168.3661  1.00270306 31111
OSCAR 23 (KITSAT 1)
1 22077U 92052B   02350.97331349 -.00000037 +00000-0 +10000-3 0 01510
2 22077 066.0857 258.9093 0014324 287.6467 072.2988 12.86405996486129
ASTRA 1C
1 22653U 93031A   02346.00000000  .00000129  00000-0  10000-3 0  7803
2 22653   0.0122 319.8851 0002995  65.1991  74.6147  1.00273184 30206
METEOR 2-21
1 22782U 93055A   02350.89331298 +.00000037 +00000-0 +20159-4 0 04688
2 22782 082.5489 265.3955 0022723 161.3232 198.8751 13.83522172469280
KITSAT B
1 22825U 93061C   02350.96191460 +.00000267 +00000-0 +12197-3 0 04403
2 22825 098.2813 018.8843 0009558 086.4713 273.7564 14.28913796480792
POSAT 1
1 22826U 93061D   02350.65199462 +.00000286 +00000-0 +12879-3 0 02866
2 22826 098.2826 019.6753 0009873 085.4064 274.8247 14.29133725480791
ITAMSAT
1 22828U 93061F   02351.55762589  .00000254  00000-0  11546-3 0  3792
2 22828  98.2771  20.7989 0011013  64.3880 295.8448 14.29480905449120
EYESAT A
1 22829U 93061G   02350.59823193 +.00000389 +00000-0 +16736-3 0 04038
2 22829 098.2809 020.4613 0010829 067.6177 292.6148 14.29726466480912
METEOSAT 6
1 22912U 93073B   02349.92583334  .00000088  00000-0  00000+0 0  5983
2 22912   2.5229  82.6977 0005270  44.4669 300.2823  1.00281120 31641
GOES 8
1 23051U 94022A   02349.23071762 -.00000230  00000-0  00000+0 0  5197
2 23051   0.4638  97.4912 0002363 159.9136 194.7771  1.00270577 39157
ASTRA 1D
1 23331U 94070A   02349.94650464  .00000162  00000-0  00000+0 0  7938
2 23331   0.0598 209.4892 0005595  83.9234 155.9056  1.00270852 30226
RADIO ROSTO
1 23439U 94085A   02350.87876633 -.00000037 +00000-0 +16578-3 0 06746
2 23439 064.8113 144.4717 0148610 127.5585 233.8943 11.27548315328414
NOAA 14
1 23455U 94089A   02350.96995995  .00000231  00000-0  14829-3 0  4550
2 23455  99.1897   2.8634 0009946  50.2709 309.9337 14.13266807410498
HIMAWARI 5 (GMS 5)
1 23522U 95011B   02346.28861020 -.00000275  00000-0  00000+0 0    87
2 23522   1.5882  82.8967 0000495   6.3886 235.1308  1.00260095 28206
HOT BIRD 1
1 23537U 95016B   02346.14250450  .00000000  00000-0  10000-3 0  5302
2 23537   0.0258 153.9793 0056718 157.0947 193.3169  1.00272124 28285
GOES 9
1 23581U 95025A   02350.29230458 -.00000057  00000-0  00000+0 0  4349
2 23581   0.5022  95.1316 0007006 240.2263 108.1529  1.00272391 27726
INMARSAT 3-F1
1 23839U 96020A   02350.80092925  .00000041  00000-0  00000+0 0  8350
2 23839   0.0375   7.1081 0004453 267.1476 163.2052  1.00272188 24574
ASTRA 1F
1 23842U 96021A   02346.00000000  .00000129  00000-0  10000-3 0  5534
2 23842   0.0122 319.8851 0002995  65.1991  74.6507  1.00273184 24435
JAS 2
1 24278U 96046B   02350.93990548 +.00000042 +00000-0 +78698-4 0 05528
2 24278 098.5299 145.8280 0351498 021.5392 340.0129 13.52866489312701
UNAMSAT
1 24305U 96052B   02350.96246002 +.00000205 +00000-0 +20364-3 0 06661
2 24305 082.9327 309.8208 0031684 022.3466 337.9048 13.73441814314752
INMARSAT 3-F2
1 24307U 96053A   02350.88176488 -.00000098  00000-0  00000+0 0   571
2 24307   0.0494 357.3064 0004305 274.1661 115.8051  1.00272411 22982
HOT BIRD 2
1 24665U 96067A   02346.51945001  .00000000  00000-0  10000-3 0  3360
2 24665   0.0371 255.0826 0047319  44.6772 340.8380  1.00272268 22589
INMARSAT 3-F3
1 24674U 96070A   02348.44754521  .00000059  00000-0  10000-3 0  9497
2 24674   0.0641   6.1022 0003976 253.3331 162.7737  1.00275017 21922
GOES 10
1 24786U 97019A   02349.23389815  .00000111  00000-0  00000+0 0  4638
2 24786   0.0321 270.7411 0002111  10.4348 111.2621  1.00268260 20687
INMARSAT 3-F4
1 24819U 97027A   02349.14410881 -.00000265  00000-0  10000-3 0  8553
2 24819   0.0216 344.3926 0003108 282.0987 175.0287  1.00269518 20356
FENGYUN 2A
1 24834U 97029A   02348.84940602 -.00000180  00000-0  00000+0 0  9380
2 24834   2.4096  89.0559 0001574 217.4574 169.1983  1.00271137 20187
HOT BIRD 3
1 24931U 97049A   02346.51791994  .00000000  00000-0  10000-3 0  4166
2 24931   0.0172 214.0703 0006313  29.1340  37.3397  1.00272578 19408
METEOSAT 7
1 24932U 97049B   02349.98032987  .00000019  00000-0  00000+0 0  2131
2 24932   0.1029  10.5489 0000923 212.1614 214.7053  1.00268200 19373
